Location: La Pernelle
(49.6188°N, 1.2999°W)
Time: 02:42:46
(UTC+00:00)

Cosmos 1844 - Visible Passes

Search period start: 23 October 2021 00:00
Search period end: 02 November 2021 00:00
Orbit: 821 x 869 km, 70.9° (Epoch: 22 October)

Date Brightness Start Highest point End Pass type
(mag) Time Alt. Az. Time Alt. Az. Time Alt. Az.
23 Oct 3.9 18:27:25 10° NNW 18:33:05 51° NE 18:36:47 21° ESE visible
23 Oct 5.2 20:11:56 10° NW 20:17:01 32° WSW 20:18:43 27° SW visible
24 Oct 4.0 18:13:25 10° NNW 18:19:04 50° NE 18:23:55 14° SE visible
24 Oct 5.2 19:57:55 10° NW 20:03:02 33° WSW 20:05:52 21° SSW visible
25 Oct 4.0 17:59:25 10° NNW 18:05:03 49° NE 18:10:36 10° SE visible
25 Oct 5.2 19:43:53 10° NW 19:49:02 34° WSW 19:53:15 14° SSW visible
26 Oct 4.0 17:45:26 10° NNW 17:51:02 47° NE 17:56:34 10° SE visible
26 Oct 5.2 19:29:52 10° NW 19:35:03 35° WSW 19:40:10 10° S visible
27 Oct 4.0 17:31:26 10° NNW 17:37:01 46° NE 17:42:31 10° SE visible
27 Oct 5.2 19:15:50 10° NW 19:21:04 36° WSW 19:26:13 10° S visible
28 Oct 4.1 17:17:26 10° NNW 17:23:01 45° NE 17:28:29 10° SE visible
28 Oct 5.2 19:01:48 10° NW 19:07:04 37° WSW 19:12:16 10° S visible
29 Oct 5.1 18:47:47 10° NW 18:53:05 38° WSW 18:58:18 10° S visible
30 Oct 5.1 18:33:46 10° NW 18:39:05 39° WSW 18:44:21 10° S visible
31 Oct 5.1 18:19:45 10° NW 18:25:06 40° WSW 18:30:23 10° S visible
01 Nov 5.1 18:05:43 10° NW 18:11:06 42° WSW 18:16:25 10° S visible
